iso_date,epoch_date,Year,Hour,Min,DOY,POS_DOY,Lat,Lon,BP,Ts,Ta,has_bp,has_ts,has_ta,BuoyID,Buoy_Type,Buoy_Owner,Logistics,Hemisphere
2020-05-29T22:24:57Z,1590791098,2020,22,25,150.934,150.934,71.36751,-156.66981,-999.00,-999.00,-999.0,no,no,no,300234067524520,IT,USIABP,UIC,North
2020-05-29T22:59:57Z,1590793197,2020,23,0,150.9583,150.9583,71.36751,-156.66979,-999.00,-999.00,-999.0,no,no,no,300234067524520,IT,USIABP,UIC,North
2020-05-30T00:00:00Z,1590796800,2020,0,0,151.0,151.0,71.36753,-156.66972,-999.00,-999.00,-999.0,no,no,no,300234067524520,IT,USIABP,UIC,North
2020-05-30T01:00:02Z,1590800403,2020,1,0,151.0417,151.0417,71.36751,-156.66975,-999.00,-999.00,-999.0,no,no,no,300234067524520,IT,USIABP,UIC,North
2020-05-30T01:59:57Z,1590803997,2020,2,0,151.0833,151.0833,71.36749,-156.66979,-999.00,-999.00,-999.0,no,no,no,300234067524520,IT,USIABP,UIC,North
2020-05-30T03:00:00Z,1590807600,2020,3,0,151.125,151.125,71.36749,-156.66976,-999.00,-999.00,-999.0,no,no,no,300234067524520,IT,USIABP,UIC,North
2020-05-30T04:00:02Z,1590811203,2020,4,0,151.1667,151.1667,71.36751,-156.66974,-999.00,-999.00,-999.0,no,no,no,300234067524520,IT,USIABP,UIC,North
2020-05-30T04:59:57Z,1590814797,2020,5,0,151.2083,151.2083,71.36753,-156.66974,-999.00,-999.00,-999.0,no,no,no,300234067524520,IT,USIABP,UIC,North
2020-05-30T06:00:00Z,1590818400,2020,6,0,151.25,151.25,71.36751,-156.66975,-999.00,-999.00,-999.0,no,no,no,300234067524520,IT,USIABP,UIC,North
2020-05-30T07:00:02Z,1590822003,2020,7,0,151.2917,151.2917,71.36753,-156.66977,-999.00,-999.00,-999.0,no,no,no,300234067524520,IT,USIABP,UIC,North
2020-05-30T07:59:57Z,1590825597,2020,8,0,151.3333,151.3333,71.36751,-156.66977,-999.00,-999.00,-999.0,no,no,no,300234067524520,IT,USIABP,UIC,North
2020-05-30T09:00:00Z,1590829200,2020,9,0,151.375,151.375,71.36751,-156.66976,-999.00,-999.00,-999.0,no,no,no,300234067524520,IT,USIABP,UIC,North
2020-05-30T10:00:02Z,1590832803,2020,10,0,151.4167,151.4167,71.36751,-156.66976,-999.00,-999.00,-999.0,no,no,no,300234067524520,IT,USIABP,UIC,North
2020-05-30T10:59:57Z,1590836397,2020,11,0,151.4583,151.4583,71.36752,-156.66974,-999.00,-999.00,-999.0,no,no,no,300234067524520,IT,USIABP,UIC,North
2020-05-30T12:00:00Z,1590840000,2020,12,0,151.5,151.5,71.36751,-156.66976,-999.00,-999.00,-999.0,no,no,no,300234067524520,IT,USIABP,UIC,North
2020-05-30T13:00:02Z,1590843603,2020,13,0,151.5417,151.5417,71.36751,-156.66972,-999.00,-999.00,-999.0,no,no,no,300234067524520,IT,USIABP,UIC,North
2020-05-30T13:59:57Z,1590847197,2020,14,0,151.5833,151.5833,71.36752,-156.66976,-999.00,-999.00,-999.0,no,no,no,300234067524520,IT,USIABP,UIC,North
2020-05-30T15:00:00Z,1590850800,2020,15,0,151.625,151.625,71.3675,-156.66978,-999.00,-999.00,-999.0,no,no,no,300234067524520,IT,USIABP,UIC,North
2020-05-30T16:00:02Z,1590854403,2020,16,0,151.6667,151.6667,71.36753,-156.66981,-999.00,-999.00,-999.0,no,no,no,300234067524520,IT,USIABP,UIC,North
2020-05-30T16:59:57Z,1590857997,2020,17,0,151.7083,151.7083,71.36751,-156.66977,-999.00,-999.00,-999.0,no,no,no,300234067524520,IT,USIABP,UIC,North
2020-05-30T18:00:00Z,1590861600,2020,18,0,151.75,151.75,71.36751,-156.66978,-999.00,-999.00,-999.0,no,no,no,300234067524520,IT,USIABP,UIC,North
2020-05-30T19:00:02Z,1590865203,2020,19,0,151.7917,151.7917,71.36751,-156.66978,-999.00,-999.00,-999.0,no,no,no,300234067524520,IT,USIABP,UIC,North
2020-05-30T19:59:57Z,1590868797,2020,20,0,151.8333,151.8333,71.36752,-156.66981,-999.00,-999.00,-999.0,no,no,no,300234067524520,IT,USIABP,UIC,North
2020-05-30T21:00:00Z,1590872400,2020,21,0,151.875,151.875,71.36751,-156.66978,-999.00,-999.00,-999.0,no,no,no,300234067524520,IT,USIABP,UIC,North
2020-05-30T22:00:02Z,1590876003,2020,22,0,151.9167,151.9167,71.36751,-156.6698,-999.00,-999.00,-999.0,no,no,no,300234067524520,IT,USIABP,UIC,North
2020-05-30T22:59:57Z,1590879597,2020,23,0,151.9583,151.9583,71.36752,-156.66981,-999.00,-999.00,-999.0,no,no,no,300234067524520,IT,USIABP,UIC,North
2020-05-31T00:00:00Z,1590883200,2020,0,0,152.0,152.0,71.36752,-156.66979,-999.00,-999.00,-999.0,no,no,no,300234067524520,IT,USIABP,UIC,North
2020-05-31T01:00:02Z,1590886803,2020,1,0,152.0417,152.0417,71.36751,-156.66977,-999.00,-999.00,-999.0,no,no,no,300234067524520,IT,USIABP,UIC,North
2020-05-31T01:59:57Z,1590890397,2020,2,0,152.0833,152.0833,71.36752,-156.66977,-999.00,-999.00,-999.0,no,no,no,300234067524520,IT,USIABP,UIC,North
2020-05-31T03:00:00Z,1590894000,2020,3,0,152.125,152.125,71.36748,-156.66979,-999.00,-999.00,-999.0,no,no,no,300234067524520,IT,USIABP,UIC,North
2020-05-31T04:00:02Z,1590897603,2020,4,0,152.1667,152.1667,71.36752,-156.66975,-999.00,-999.00,-999.0,no,no,no,300234067524520,IT,USIABP,UIC,North
2020-05-31T04:59:57Z,1590901197,2020,5,0,152.2083,152.2083,71.36754,-156.66977,-999.00,-999.00,-999.0,no,no,no,300234067524520,IT,USIABP,UIC,North
2020-05-31T06:00:00Z,1590904800,2020,6,0,152.25,152.25,71.36753,-156.66977,-999.00,-999.00,-999.0,no,no,no,300234067524520,IT,USIABP,UIC,North
2020-05-31T07:00:02Z,1590908403,2020,7,0,152.2917,152.2917,71.3675,-156.66979,-999.00,-999.00,-999.0,no,no,no,300234067524520,IT,USIABP,UIC,North
2020-05-31T07:59:57Z,1590911997,2020,8,0,152.3333,152.3333,71.36751,-156.66975,-999.00,-999.00,-999.0,no,no,no,300234067524520,IT,USIABP,UIC,North
2020-05-31T09:00:00Z,1590915600,2020,9,0,152.375,152.375,71.36751,-156.66974,-999.00,-999.00,-999.0,no,no,no,300234067524520,IT,USIABP,UIC,North
2020-05-31T10:00:02Z,1590919203,2020,10,0,152.4167,152.4167,71.36751,-156.66975,-999.00,-999.00,-999.0,no,no,no,300234067524520,IT,USIABP,UIC,North
2020-05-31T10:59:57Z,1590922797,2020,11,0,152.4583,152.4583,71.36749,-156.66975,-999.00,-999.00,-999.0,no,no,no,300234067524520,IT,USIABP,UIC,North
2020-05-31T12:00:00Z,1590926400,2020,12,0,152.5,152.5,71.36751,-156.66975,-999.00,-999.00,-999.0,no,no,no,300234067524520,IT,USIABP,UIC,North
2020-05-31T13:00:02Z,1590930003,2020,13,0,152.5417,152.5417,71.36751,-156.66979,-999.00,-999.00,-999.0,no,no,no,300234067524520,IT,USIABP,UIC,North
2020-05-31T13:59:57Z,1590933597,2020,14,0,152.5833,152.5833,71.36754,-156.66977,-999.00,-999.00,-999.0,no,no,no,300234067524520,IT,USIABP,UIC,North
2020-05-31T15:00:00Z,1590937200,2020,15,0,152.625,152.625,71.3675,-156.66978,-999.00,-999.00,-999.0,no,no,no,300234067524520,IT,USIABP,UIC,North
2020-05-31T16:00:02Z,1590940803,2020,16,0,152.6667,152.6667,71.3675,-156.66978,-999.00,-999.00,-999.0,no,no,no,300234067524520,IT,USIABP,UIC,North
2020-05-31T16:59:57Z,1590944397,2020,17,0,152.7083,152.7083,71.36751,-156.66977,-999.00,-999.00,-999.0,no,no,no,300234067524520,IT,USIABP,UIC,North
2020-05-31T18:00:00Z,1590948000,2020,18,0,152.75,152.75,71.36752,-156.66978,-999.00,-999.00,-999.0,no,no,no,300234067524520,IT,USIABP,UIC,North
2020-05-31T19:00:02Z,1590951603,2020,19,0,152.7917,152.7917,71.3675,-156.66976,-999.00,-999.00,-999.0,no,no,no,300234067524520,IT,USIABP,UIC,North
2020-05-31T19:59:57Z,1590955197,2020,20,0,152.8333,152.8333,71.36751,-156.66977,-999.00,-999.00,-999.0,no,no,no,300234067524520,IT,USIABP,UIC,North
2020-05-31T21:00:00Z,1590958800,2020,21,0,152.875,152.875,71.36751,-156.66977,-999.00,-999.00,-999.0,no,no,no,300234067524520,IT,USIABP,UIC,North
2020-05-31T22:00:02Z,1590962403,2020,22,0,152.9167,152.9167,71.3675,-156.66978,-999.00,-999.00,-999.0,no,no,no,300234067524520,IT,USIABP,UIC,North
2020-05-31T22:59:57Z,1590965997,2020,23,0,152.9583,152.9583,71.36751,-156.66978,-999.00,-999.00,-999.0,no,no,no,300234067524520,IT,USIABP,UIC,North
2020-06-01T00:00:00Z,1590969600,2020,0,0,153.0,153.0,71.36751,-156.66977,-999.00,-999.00,-999.0,no,no,no,300234067524520,IT,USIABP,UIC,North
2020-06-01T01:00:02Z,1590973203,2020,1,0,153.0417,153.0417,71.3675,-156.66976,-999.00,-999.00,-999.0,no,no,no,300234067524520,IT,USIABP,UIC,North
2020-06-01T01:59:57Z,1590976797,2020,2,0,153.0833,153.0833,71.36751,-156.66978,-999.00,-999.00,-999.0,no,no,no,300234067524520,IT,USIABP,UIC,North
2020-06-01T03:00:00Z,1590980400,2020,3,0,153.125,153.125,71.36751,-156.66977,-999.00,-999.00,-999.0,no,no,no,300234067524520,IT,USIABP,UIC,North
2020-06-01T04:00:02Z,1590984003,2020,4,0,153.1667,153.1667,71.3675,-156.66979,-999.00,-999.00,-999.0,no,no,no,300234067524520,IT,USIABP,UIC,North
2020-06-01T04:59:57Z,1590987597,2020,5,0,153.2083,153.2083,71.3675,-156.66976,-999.00,-999.00,-999.0,no,no,no,300234067524520,IT,USIABP,UIC,North
2020-06-01T06:00:00Z,1590991200,2020,6,0,153.25,153.25,71.36752,-156.66973,-999.00,-999.00,-999.0,no,no,no,300234067524520,IT,USIABP,UIC,North
2020-06-01T07:00:02Z,1590994803,2020,7,0,153.2917,153.2917,71.36751,-156.66977,-999.00,-999.00,-999.0,no,no,no,300234067524520,IT,USIABP,UIC,North
2020-06-01T07:59:57Z,1590998397,2020,8,0,153.3333,153.3333,71.36751,-156.66976,-999.00,-999.00,-999.0,no,no,no,300234067524520,IT,USIABP,UIC,North
2020-06-01T09:00:00Z,1591002000,2020,9,0,153.375,153.375,71.36751,-156.66977,-999.00,-999.00,-999.0,no,no,no,300234067524520,IT,USIABP,UIC,North
2020-06-01T10:00:02Z,1591005603,2020,10,0,153.4167,153.4167,71.36751,-156.66976,-999.00,-999.00,-999.0,no,no,no,300234067524520,IT,USIABP,UIC,North
2020-06-01T10:59:57Z,1591009197,2020,11,0,153.4583,153.4583,71.36751,-156.66977,-999.00,-999.00,-999.0,no,no,no,300234067524520,IT,USIABP,UIC,North
2020-06-01T12:00:00Z,1591012800,2020,12,0,153.5,153.5,71.3675,-156.66974,-999.00,-999.00,-999.0,no,no,no,300234067524520,IT,USIABP,UIC,North
2020-06-01T13:00:02Z,1591016403,2020,13,0,153.5417,153.5417,71.36753,-156.66977,-999.00,-999.00,-999.0,no,no,no,300234067524520,IT,USIABP,UIC,North
2020-06-01T13:59:57Z,1591019997,2020,14,0,153.5833,153.5833,71.36752,-156.66977,-999.00,-999.00,-999.0,no,no,no,300234067524520,IT,USIABP,UIC,North
2020-06-01T15:00:00Z,1591023600,2020,15,0,153.625,153.625,71.36751,-156.66976,-999.00,-999.00,-999.0,no,no,no,300234067524520,IT,USIABP,UIC,North
2020-06-01T16:00:02Z,1591027203,2020,16,0,153.6667,153.6667,71.36751,-156.66976,-999.00,-999.00,-999.0,no,no,no,300234067524520,IT,USIABP,UIC,North
2020-06-01T16:59:57Z,1591030797,2020,17,0,153.7083,153.7083,71.36751,-156.66977,-999.00,-999.00,-999.0,no,no,no,300234067524520,IT,USIABP,UIC,North
2020-06-01T18:00:00Z,1591034400,2020,18,0,153.75,153.75,71.36752,-156.66977,-999.00,-999.00,-999.0,no,no,no,300234067524520,IT,USIABP,UIC,North
2020-06-01T19:00:02Z,1591038003,2020,19,0,153.7917,153.7917,71.36751,-156.66978,-999.00,-999.00,-999.0,no,no,no,300234067524520,IT,USIABP,UIC,North
2020-06-01T19:59:57Z,1591041597,2020,20,0,153.8333,153.8333,71.36751,-156.66977,-999.00,-999.00,-999.0,no,no,no,300234067524520,IT,USIABP,UIC,North
2020-06-01T21:00:00Z,1591045200,2020,21,0,153.875,153.875,71.36751,-156.66977,-999.00,-999.00,-999.0,no,no,no,300234067524520,IT,USIABP,UIC,North
2020-06-01T22:00:02Z,1591048803,2020,22,0,153.9167,153.9167,71.3675,-156.66979,-999.00,-999.00,-999.0,no,no,no,300234067524520,IT,USIABP,UIC,North
2020-06-01T22:59:57Z,1591052397,2020,23,0,153.9583,153.9583,71.36751,-156.66979,-999.00,-999.00,-999.0,no,no,no,300234067524520,IT,USIABP,UIC,North
2020-06-02T00:00:00Z,1591056000,2020,0,0,154.0,154.0,71.3675,-156.66977,-999.00,-999.00,-999.0,no,no,no,300234067524520,IT,USIABP,UIC,North
2020-06-02T01:00:02Z,1591059603,2020,1,0,154.0417,154.0417,71.36752,-156.66978,-999.00,-999.00,-999.0,no,no,no,300234067524520,IT,USIABP,UIC,North
2020-06-02T01:59:57Z,1591063197,2020,2,0,154.0833,154.0833,71.3675,-156.66977,-999.00,-999.00,-999.0,no,no,no,300234067524520,IT,USIABP,UIC,North
2020-06-02T03:00:00Z,1591066800,2020,3,0,154.125,154.125,71.36751,-156.66977,-999.00,-999.00,-999.0,no,no,no,300234067524520,IT,USIABP,UIC,North
2020-06-02T04:00:02Z,1591070403,2020,4,0,154.1667,154.1667,71.3675,-156.66982,-999.00,-999.00,-999.0,no,no,no,300234067524520,IT,USIABP,UIC,North
2020-06-02T04:59:57Z,1591073997,2020,5,0,154.2083,154.2083,71.3675,-156.66974,-999.00,-999.00,-999.0,no,no,no,300234067524520,IT,USIABP,UIC,North
2020-06-02T06:00:00Z,1591077600,2020,6,0,154.25,154.25,71.36752,-156.66974,-999.00,-999.00,-999.0,no,no,no,300234067524520,IT,USIABP,UIC,North
2020-06-02T07:00:02Z,1591081203,2020,7,0,154.2917,154.2917,71.36752,-156.66979,-999.00,-999.00,-999.0,no,no,no,300234067524520,IT,USIABP,UIC,North
2020-06-02T07:59:57Z,1591084797,2020,8,0,154.3333,154.3333,71.36751,-156.66978,-999.00,-999.00,-999.0,no,no,no,300234067524520,IT,USIABP,UIC,North
2020-06-02T09:00:00Z,1591088400,2020,9,0,154.375,154.375,71.36751,-156.66975,-999.00,-999.00,-999.0,no,no,no,300234067524520,IT,USIABP,UIC,North
2020-06-02T10:00:02Z,1591092003,2020,10,0,154.4167,154.4167,71.3675,-156.66977,-999.00,-999.00,-999.0,no,no,no,300234067524520,IT,USIABP,UIC,North
2020-06-02T10:59:57Z,1591095597,2020,11,0,154.4583,154.4583,71.36752,-156.6698,-999.00,-999.00,-999.0,no,no,no,300234067524520,IT,USIABP,UIC,North
2020-06-02T12:00:00Z,1591099200,2020,12,0,154.5,154.5,71.36752,-156.66975,-999.00,-999.00,-999.0,no,no,no,300234067524520,IT,USIABP,UIC,North
2020-06-02T13:00:02Z,1591102803,2020,13,0,154.5417,154.5417,71.36747,-156.66974,-999.00,-999.00,-999.0,no,no,no,300234067524520,IT,USIABP,UIC,North
2020-06-02T13:59:57Z,1591106397,2020,14,0,154.5833,154.5833,71.36751,-156.66977,-999.00,-999.00,-999.0,no,no,no,300234067524520,IT,USIABP,UIC,North
2020-06-02T15:00:00Z,1591110000,2020,15,0,154.625,154.625,71.3675,-156.66979,-999.00,-999.00,-999.0,no,no,no,300234067524520,IT,USIABP,UIC,North
2020-06-02T16:00:02Z,1591113603,2020,16,0,154.6667,154.6667,71.3675,-156.66979,-999.00,-999.00,-999.0,no,no,no,300234067524520,IT,USIABP,UIC,North
2020-06-02T16:59:57Z,1591117197,2020,17,0,154.7083,154.7083,71.36752,-156.66983,-999.00,-999.00,-999.0,no,no,no,300234067524520,IT,USIABP,UIC,North
2020-06-02T18:00:00Z,1591120800,2020,18,0,154.75,154.75,71.36752,-156.66981,-999.00,-999.00,-999.0,no,no,no,300234067524520,IT,USIABP,UIC,North
2020-06-02T19:00:02Z,1591124403,2020,19,0,154.7917,154.7917,71.3675,-156.66976,-999.00,-999.00,-999.0,no,no,no,300234067524520,IT,USIABP,UIC,North
2020-06-02T19:59:57Z,1591127997,2020,20,0,154.8333,154.8333,71.36751,-156.66975,-999.00,-999.00,-999.0,no,no,no,300234067524520,IT,USIABP,UIC,North
2020-06-02T21:00:00Z,1591131600,2020,21,0,154.875,154.875,71.36751,-156.66976,-999.00,-999.00,-999.0,no,no,no,300234067524520,IT,USIABP,UIC,North
2020-06-02T22:00:02Z,1591135203,2020,22,0,154.9167,154.9167,71.36751,-156.66975,-999.00,-999.00,-999.0,no,no,no,300234067524520,IT,USIABP,UIC,North
2020-06-02T22:59:57Z,1591138797,2020,23,0,154.9583,154.9583,71.36751,-156.66978,-999.00,-999.00,-999.0,no,no,no,300234067524520,IT,USIABP,UIC,North
2020-06-03T00:00:00Z,1591142400,2020,0,0,155.0,155.0,71.36751,-156.66976,-999.00,-999.00,-999.0,no,no,no,300234067524520,IT,USIABP,UIC,North
2020-06-03T01:00:02Z,1591146003,2020,1,0,155.0417,155.0417,71.36751,-156.66979,-999.00,-999.00,-999.0,no,no,no,300234067524520,IT,USIABP,UIC,North
2020-06-03T01:59:57Z,1591149597,2020,2,0,155.0833,155.0833,71.36753,-156.66981,-999.00,-999.00,-999.0,no,no,no,300234067524520,IT,USIABP,UIC,North
2020-06-03T03:00:00Z,1591153200,2020,3,0,155.125,155.125,71.36749,-156.6698,-999.00,-999.00,-999.0,no,no,no,300234067524520,IT,USIABP,UIC,North
2020-06-03T04:00:02Z,1591156803,2020,4,0,155.1667,155.1667,71.36751,-156.66977,-999.00,-999.00,-999.0,no,no,no,300234067524520,IT,USIABP,UIC,North
2020-06-03T04:59:57Z,1591160397,2020,5,0,155.2083,155.2083,71.36753,-156.66974,-999.00,-999.00,-999.0,no,no,no,300234067524520,IT,USIABP,UIC,North
2020-06-03T06:00:00Z,1591164000,2020,6,0,155.25,155.25,71.36751,-156.66972,-999.00,-999.00,-999.0,no,no,no,300234067524520,IT,USIABP,UIC,North
2020-06-03T07:00:02Z,1591167603,2020,7,0,155.2917,155.2917,71.36749,-156.66975,-999.00,-999.00,-999.0,no,no,no,300234067524520,IT,USIABP,UIC,North
2020-06-03T07:59:57Z,1591171197,2020,8,0,155.3333,155.3333,71.36751,-156.6698,-999.00,-999.00,-999.0,no,no,no,300234067524520,IT,USIABP,UIC,North
2020-06-03T09:00:00Z,1591174800,2020,9,0,155.375,155.375,71.36751,-156.66976,-999.00,-999.00,-999.0,no,no,no,300234067524520,IT,USIABP,UIC,North
2020-06-03T10:00:02Z,1591178403,2020,10,0,155.4167,155.4167,71.36751,-156.66979,-999.00,-999.00,-999.0,no,no,no,300234067524520,IT,USIABP,UIC,North
2020-06-03T10:59:57Z,1591181997,2020,11,0,155.4583,155.4583,71.36751,-156.66978,-999.00,-999.00,-999.0,no,no,no,300234067524520,IT,USIABP,UIC,North
2020-06-03T12:00:00Z,1591185600,2020,12,0,155.5,155.5,71.36753,-156.66982,-999.00,-999.00,-999.0,no,no,no,300234067524520,IT,USIABP,UIC,North
2020-06-03T13:00:02Z,1591189203,2020,13,0,155.5417,155.5417,71.36752,-156.66974,-999.00,-999.00,-999.0,no,no,no,300234067524520,IT,USIABP,UIC,North
2020-06-03T13:59:57Z,1591192797,2020,14,0,155.5833,155.5833,71.36751,-156.66977,-999.00,-999.00,-999.0,no,no,no,300234067524520,IT,USIABP,UIC,North
2020-06-03T15:00:00Z,1591196400,2020,15,0,155.625,155.625,71.36752,-156.66978,-999.00,-999.00,-999.0,no,no,no,300234067524520,IT,USIABP,UIC,North
2020-06-03T16:00:02Z,1591200003,2020,16,0,155.6667,155.6667,71.36751,-156.66978,-999.00,-999.00,-999.0,no,no,no,300234067524520,IT,USIABP,UIC,North
2020-06-03T16:59:57Z,1591203597,2020,17,0,155.7083,155.7083,71.36752,-156.66978,-999.00,-999.00,-999.0,no,no,no,300234067524520,IT,USIABP,UIC,North
2020-06-03T18:00:00Z,1591207200,2020,18,0,155.75,155.75,71.36751,-156.66982,-999.00,-999.00,-999.0,no,no,no,300234067524520,IT,USIABP,UIC,North
2020-06-03T19:00:02Z,1591210803,2020,19,0,155.7917,155.7917,71.36751,-156.66981,-999.00,-999.00,-999.0,no,no,no,300234067524520,IT,USIABP,UIC,North
2020-06-03T19:59:57Z,1591214397,2020,20,0,155.8333,155.8333,71.36751,-156.66976,-999.00,-999.00,-999.0,no,no,no,300234067524520,IT,USIABP,UIC,North
2020-06-03T21:00:00Z,1591218000,2020,21,0,155.875,155.875,71.36749,-156.66979,-999.00,-999.00,-999.0,no,no,no,300234067524520,IT,USIABP,UIC,North
2020-06-03T22:00:02Z,1591221603,2020,22,0,155.9167,155.9167,71.36754,-156.66978,-999.00,-999.00,-999.0,no,no,no,300234067524520,IT,USIABP,UIC,North
2020-06-03T22:59:57Z,1591225197,2020,23,0,155.9583,155.9583,71.3675,-156.66977,-999.00,-999.00,-999.0,no,no,no,300234067524520,IT,USIABP,UIC,North
2020-06-04T00:00:00Z,1591228800,2020,0,0,156.0,156.0,71.36748,-156.66973,-999.00,-999.00,-999.0,no,no,no,300234067524520,IT,USIABP,UIC,North
2020-06-04T01:00:02Z,1591232403,2020,1,0,156.0417,156.0417,71.36751,-156.66983,-999.00,-999.00,-999.0,no,no,no,300234067524520,IT,USIABP,UIC,North
2020-06-04T01:59:57Z,1591235997,2020,2,0,156.0833,156.0833,71.36751,-156.66982,-999.00,-999.00,-999.0,no,no,no,300234067524520,IT,USIABP,UIC,North
2020-06-04T03:00:00Z,1591239600,2020,3,0,156.125,156.125,71.36752,-156.66979,-999.00,-999.00,-999.0,no,no,no,300234067524520,IT,USIABP,UIC,North
2020-06-04T04:00:02Z,1591243203,2020,4,0,156.1667,156.1667,71.36752,-156.6698,-999.00,-999.00,-999.0,no,no,no,300234067524520,IT,USIABP,UIC,North
2020-06-04T04:59:57Z,1591246797,2020,5,0,156.2083,156.2083,71.36751,-156.66976,-999.00,-999.00,-999.0,no,no,no,300234067524520,IT,USIABP,UIC,North
2020-06-04T06:00:00Z,1591250400,2020,6,0,156.25,156.25,71.36753,-156.66976,-999.00,-999.00,-999.0,no,no,no,300234067524520,IT,USIABP,UIC,North
2020-06-04T07:00:02Z,1591254003,2020,7,0,156.2917,156.2917,71.36749,-156.66977,-999.00,-999.00,-999.0,no,no,no,300234067524520,IT,USIABP,UIC,North
2020-06-04T07:59:57Z,1591257597,2020,8,0,156.3333,156.3333,71.36751,-156.66979,-999.00,-999.00,-999.0,no,no,no,300234067524520,IT,USIABP,UIC,North
2020-06-04T09:00:00Z,1591261200,2020,9,0,156.375,156.375,71.36751,-156.66977,-999.00,-999.00,-999.0,no,no,no,300234067524520,IT,USIABP,UIC,North
2020-06-04T10:00:02Z,1591264803,2020,10,0,156.4167,156.4167,71.36749,-156.6697,-999.00,-999.00,-999.0,no,no,no,300234067524520,IT,USIABP,UIC,North
2020-06-04T10:59:57Z,1591268397,2020,11,0,156.4583,156.4583,71.3675,-156.66974,-999.00,-999.00,-999.0,no,no,no,300234067524520,IT,USIABP,UIC,North
2020-06-04T12:00:00Z,1591272000,2020,12,0,156.5,156.5,71.36751,-156.66977,-999.00,-999.00,-999.0,no,no,no,300234067524520,IT,USIABP,UIC,North
2020-06-04T13:00:02Z,1591275603,2020,13,0,156.5417,156.5417,71.36749,-156.66977,-999.00,-999.00,-999.0,no,no,no,300234067524520,IT,USIABP,UIC,North
2020-06-04T13:59:57Z,1591279197,2020,14,0,156.5833,156.5833,71.36752,-156.66979,-999.00,-999.00,-999.0,no,no,no,300234067524520,IT,USIABP,UIC,North
2020-06-04T15:00:00Z,1591282800,2020,15,0,156.625,156.625,71.3675,-156.66979,-999.00,-999.00,-999.0,no,no,no,300234067524520,IT,USIABP,UIC,North
2020-06-04T16:00:02Z,1591286403,2020,16,0,156.6667,156.6667,71.36751,-156.66978,-999.00,-999.00,-999.0,no,no,no,300234067524520,IT,USIABP,UIC,North
2020-06-04T16:59:57Z,1591289997,2020,17,0,156.7083,156.7083,71.36751,-156.66976,-999.00,-999.00,-999.0,no,no,no,300234067524520,IT,USIABP,UIC,North
2020-06-04T18:00:00Z,1591293600,2020,18,0,156.75,156.75,71.36749,-156.66973,-999.00,-999.00,-999.0,no,no,no,300234067524520,IT,USIABP,UIC,North
2020-06-04T19:00:02Z,1591297203,2020,19,0,156.7917,156.7917,71.36753,-156.66979,-999.00,-999.00,-999.0,no,no,no,300234067524520,IT,USIABP,UIC,North
2020-06-04T19:59:57Z,1591300797,2020,20,0,156.8333,156.8333,71.36749,-156.66974,-999.00,-999.00,-999.0,no,no,no,300234067524520,IT,USIABP,UIC,North
2020-06-04T21:00:00Z,1591304400,2020,21,0,156.875,156.875,71.36752,-156.66979,-999.00,-999.00,-999.0,no,no,no,300234067524520,IT,USIABP,UIC,North
2020-06-04T22:00:02Z,1591308003,2020,22,0,156.9167,156.9167,71.36752,-156.66979,-999.00,-999.00,-999.0,no,no,no,300234067524520,IT,USIABP,UIC,North
2020-06-04T22:59:57Z,1591311597,2020,23,0,156.9583,156.9583,71.36751,-156.6698,-999.00,-999.00,-999.0,no,no,no,300234067524520,IT,USIABP,UIC,North
2020-06-05T00:00:00Z,1591315200,2020,0,0,157.0,157.0,71.3675,-156.6698,-999.00,-999.00,-999.0,no,no,no,300234067524520,IT,USIABP,UIC,North
2020-06-05T01:00:02Z,1591318803,2020,1,0,157.0417,157.0417,71.36752,-156.66979,-999.00,-999.00,-999.0,no,no,no,300234067524520,IT,USIABP,UIC,North
2020-06-05T01:59:57Z,1591322397,2020,2,0,157.0833,157.0833,71.36752,-156.66977,-999.00,-999.00,-999.0,no,no,no,300234067524520,IT,USIABP,UIC,North
2020-06-05T03:00:00Z,1591326000,2020,3,0,157.125,157.125,71.3675,-156.66978,-999.00,-999.00,-999.0,no,no,no,300234067524520,IT,USIABP,UIC,North
2020-06-05T04:00:02Z,1591329603,2020,4,0,157.1667,157.1667,71.36752,-156.66982,-999.00,-999.00,-999.0,no,no,no,300234067524520,IT,USIABP,UIC,North
2020-06-05T04:59:57Z,1591333197,2020,5,0,157.2083,157.2083,71.36752,-156.66974,-999.00,-999.00,-999.0,no,no,no,300234067524520,IT,USIABP,UIC,North
2020-06-05T06:00:00Z,1591336800,2020,6,0,157.25,157.25,71.36751,-156.66978,-999.00,-999.00,-999.0,no,no,no,300234067524520,IT,USIABP,UIC,North
2020-06-05T07:00:02Z,1591340403,2020,7,0,157.2917,157.2917,71.36751,-156.66977,-999.00,-999.00,-999.0,no,no,no,300234067524520,IT,USIABP,UIC,North
2020-06-05T07:59:57Z,1591343997,2020,8,0,157.3333,157.3333,71.36752,-156.66978,-999.00,-999.00,-999.0,no,no,no,300234067524520,IT,USIABP,UIC,North
2020-06-05T09:00:00Z,1591347600,2020,9,0,157.375,157.375,71.36755,-156.66977,-999.00,-999.00,-999.0,no,no,no,300234067524520,IT,USIABP,UIC,North
2020-06-05T10:00:02Z,1591351203,2020,10,0,157.4167,157.4167,71.36751,-156.66975,-999.00,-999.00,-999.0,no,no,no,300234067524520,IT,USIABP,UIC,North
2020-06-05T10:59:57Z,1591354797,2020,11,0,157.4583,157.4583,71.36751,-156.66977,-999.00,-999.00,-999.0,no,no,no,300234067524520,IT,USIABP,UIC,North
2020-06-05T12:00:00Z,1591358400,2020,12,0,157.5,157.5,71.36751,-156.66976,-999.00,-999.00,-999.0,no,no,no,300234067524520,IT,USIABP,UIC,North
2020-06-05T13:00:02Z,1591362003,2020,13,0,157.5417,157.5417,71.36753,-156.6698,-999.00,-999.00,-999.0,no,no,no,300234067524520,IT,USIABP,UIC,North
2020-06-05T13:59:57Z,1591365597,2020,14,0,157.5833,157.5833,71.36751,-156.66978,-999.00,-999.00,-999.0,no,no,no,300234067524520,IT,USIABP,UIC,North
2020-06-05T15:00:00Z,1591369200,2020,15,0,157.625,157.625,71.36751,-156.66979,-999.00,-999.00,-999.0,no,no,no,300234067524520,IT,USIABP,UIC,North
2020-06-05T16:00:02Z,1591372803,2020,16,0,157.6667,157.6667,71.3675,-156.66976,-999.00,-999.00,-999.0,no,no,no,300234067524520,IT,USIABP,UIC,North